Visibility
15.0 15.0 15.0 15.0 15.0 15.0 15.0 15.0 15.0 15.0 15.0 15.0 15.0 15.0 15.0 15.0 15.0 15.0 15.0 15.0 15.0 15.0 15.0 15.0 15.0 15.0 15.0 15.0 15.0 15.0 15.0 15.0 15.0 15.0 15.0 15.0 15.0 15.0
15.0 15.0 15.0 15.0 15.0 15.0 15.0 15.0 15.0 15.0 9.2 15.0 15.0 15.0 15.0 15.0 15.0 15.0 15.0 15.0 15.0 15.0 15.0 15.0 15.0 15.0 15.0 15.0 15.0 15.0 15.0 15.0 15.0 15.0 15.0 15.0 15.0 15.0
15.0 15.0 15.0 15.0 15.0 15.0 15.0 15.0 15.0 15.0 15.0 15.0 15.0 15.0 15.0 15.0 15.0 15.0 15.0 15.0 15.0 15.0 15.0 15.0 15.0 15.0 15.0 15.0 15.0 15.0 15.0 15.0 15.0 15.0 15.0 15.0 15.0 15.0
15.0 15.0 15.0 15.0 15.0 15.0 15.0 15.0 15.0 15.0 15.0 15.0 15.0 15.0 15.0 15.0 15.0 15.0 15.0 15.0 15.0 15.0 15.0 15.0 15.0 15.0 15.0 15.0 15.0 15.0 15.0 15.0 15.0 15.0 15.0 15.0 15.0 15.0
15.0 15.0 15.0 15.0 15.0 15.0 15.0 15.0 15.0 15.0 15.0 15.0 15.0 15.0 15.0 15.0 15.0 15.0 15.0 15.0 15.0 15.0 15.0 15.0 15.0 15.0 15.0 15.0 15.0 15.0 15.0 15.0 15.0 15.0 15.0 15.0 15.0 15.0
15.0 15.0 15.0 15.0 15.0 15.0 15.0 15.0 15.0 15.0 15.0 15.0 15.0 15.0 15.0 15.0 15.0 15.0 15.0 15.0 15.0 15.0 15.0 15.0 15.0 15.0 15.0 15.0 15.0 15.0 15.0 15.0 15.0 15.0 15.0 15.0 15.0 15.0
15.0 15.0 15.0 15.0 15.0 15.0 15.0 15.0 15.0 15.0 15.0 15.0 15.0 15.0 15.0 15.0 15.0 15.0 15.0 15.0 15.0 15.0 15.0 15.0 15.0 15.0 15.0 15.0 15.0 15.0 15.0 15.0 15.0 15.0 15.0 15.0 15.0 15.0
15.0 15.0 15.0 15.0 15.0 15.0 15.0 15.0 15.0 15.0 15.0 15.0 15.0 15.0 15.0 15.0 15.0 15.0 14.9 0.7 14.9 15.0 15.0 15.0 15.0 15.0 15.0 15.0 15.0 15.0 15.0 15.0 15.0 15.0 15.0 15.0 15.0 15.0
15.0 15.0 15.0 15.0 15.0 15.0 15.0 15.0 15.0 15.0 15.0 15.0 15.0 15.0 15.0 15.0 15.0 11.1 10.6 2.0 4.6 15.0 15.0 9.8 15.0 15.0 15.0 15.0 15.0 15.0 15.0 15.0 15.0 15.0 15.0 15.0 15.0 15.0
15.0 15.0 15.0 15.0 15.0 15.0 15.0 15.0 15.0 15.0 15.0 15.0 15.0 15.0 15.0 15.0 15.0 13.8 0.1 0.0 0.1 15.0 15.0 0.0 15.0 15.0 15.0 15.0 15.0 15.0 15.0 15.0 15.0 14.6 13.7 15.0 15.0 15.0
15.0 15.0 15.0 15.0 15.0 15.0 15.0 15.0 15.0 15.0 15.0 15.0 15.0 15.0 8.7 15.0 13.9 4.6 0.0 0.0 1.7 15.0 15.0 1.9 4.1 5.9 15.0 15.0 15.0 15.0 15.0 15.0 15.0 15.0 15.0 11.7 11.6 13.1
15.0 15.0 15.0 15.0 15.0 15.0 15.0 15.0 15.0 15.0 15.0 15.0 15.0 15.0 15.0 15.0 10.4 15.0 1.1 0.0 7.6 13.8 13.7 0.0 2.5 4.6 0.3 15.0 15.0 15.0 15.0 15.0 15.0 14.6 14.3 7.8 8.2 14.5
15.0 15.0 15.0 15.0 15.0 15.0 15.0 15.0 14.9 15.0 14.7 15.0 15.0 15.0 15.0 15.0 15.0 15.0 15.0 15.0 9.4 0.9 15.0 0.1 0.1 0.0 0.0 1.0 15.0 15.0 15.0 15.0 6.1 0.1 15.0 15.0 5.0 0.7
15.0 15.0 15.0 15.0 15.0 15.0 15.0 15.0 15.0 11.8 14.1 15.0 15.0 15.0 15.0 15.0 15.0 15.0 15.0 15.0 15.0 9.6 3.4 0.0 0.0 0.0 0.3 0.2 0.2 15.0 15.0 15.0 12.5 9.6 9.6 0.4 0.2 0.1
15.0 15.0 15.0 15.0 15.0 15.0 15.0 15.0 15.0 15.0 15.0 15.0 15.0 15.0 15.0 1.9 15.0 15.0 15.0 15.0 15.0 11.3 12.6 7.6 0.0 0.0 0.0 0.0 0.1 9.8 1.6 15.0 15.0 15.0 15.0 14.6 3.0 0.7
15.0 15.0 15.0 15.0 15.0 8.9 15.0 15.0 15.0 15.0 15.0 5.6 0.7 15.0 15.0 14.9 14.1 15.0 0.2 13.9 2.2 14.0 15.0 0.1 0.0 0.0 0.0 0.0 0.1 0.1 0.2 4.7 13.1 14.7 14.6 2.6 0.4 0.9
3.9 13.9 6.2 14.3 11.5 2.2 15.0 15.0 15.0 15.0 15.0 13.4 15.0 15.0 3.3 15.0 9.9 15.0 0.4 0.3 0.1 0.8 2.2 0.0 0.0 0.0 0.0 0.1 0.1 0.1 0.6 5.1 14.4 0.9 0.6 10.2 13.9 0.4
5.1 0.5 0.8 0.2 1.0 15.0 15.0 15.0 15.0 15.0 14.4 15.0 6.8 0.9 0.2 0.8 0.9 10.5 2.3 0.1 0.1 0.8 0.1 0.4 0.2 0.2 0.2 0.2 0.0 0.1 1.1 1.2 0.8 0.4 0.3 0.2 2.1 6.1
0.2 0.4 12.6 15.0 15.0 15.0 3.3 3.2 15.0 15.0 15.0 3.0 0.2 0.2 0.2 0.8 1.0 0.3 0.3 0.1 0.2 0.2 0.3 0.2 0.2 0.2 0.2 0.2 0.2 14.5 1.0 7.7 3.3 2.0 1.1 0.4 0.4 0.8
15.0 15.0 15.0 15.0 12.4 0.5 15.0 15.0 11.9 14.2 3.3 0.4 0.2 0.3 0.3 0.1 0.2 0.3 0.2 0.1 0.2 0.2 0.2 0.2 0.2 0.2 0.2 0.4 1.4 2.0 3.0 1.4 0.3 0.3 0.4 1.0 2.6 13.7
15.0 14.6 9.5 0.2 0.9 15.0 8.0 12.6 13.2 0.6 0.2 0.1 0.4 0.3 0.4 0.1 0.2 0.2 0.1 0.1 0.2 0.2 0.2 0.2 0.2 0.3 0.2 0.2 0.3 0.7 7.2 15.0 0.5 0.1 0.3 0.2 0.2 0.2
8.6 0.2 1.6 15.0 4.6 0.8 8.3 3.5 0.3 0.3 0.4 0.5 0.3 0.2 0.1 0.1 0.1 0.1 0.1 0.1 0.2 0.2 0.2 0.3 0.2 0.2 0.1 0.1 0.2 0.3 0.6 1.0 8.3 3.2 0.4 0.2 0.2 0.2
1.7 2.2 1.2 0.5 0.3 0.4 0.3 0.2 0.2 0.4 0.3 0.2 0.1 0.2 0.1 0.1 0.1 0.1 0.1 0.2 0.3 0.2 0.2 0.2 0.2 0.1 0.1 0.1 0.1 0.2 0.2 0.2 0.2 0.2 0.4 1.1 0.2 0.2